Content
SEND FEEDBACK

Daily
Averages
Monthly
Summary
Spain

PALMA, SPAIN


Home > Europe > Spain
Elevation: 26 feet     Latitude: 39 33N     Longitude: 002 44E

WEATHER
 
SELECT A DAY
Number of Records: 297,981;   Date Range: 7/1/96 - 9/3/14
 
SHARE

PRINT THIS DATA

[ ← Previous Day ]
WEATHER ALMANAC - APRIL 23, 2013
[ Next Day → ]
[ °C ]   °F
Weather ElementAverageHighLow
Temperature56.9 °F68 °F (12:30 pm)42.8 °F (6:00 am)
Dewpoint44.6 °F53.6 °F (10:00 am)37.4 °F (6:30 pm)
Humidity68.1 %100 % (8:00 am)23 % (2:00 pm)
Barometer30.15 in30.21 in (11:30 pm)30.09 in (3:00 am)
Wind Speed9.2 mph21.9 mph (1:30 pm)
Wind Gust27.6 mph (2:00 pm)
Weather ElementAverage
Visibility7.5 mi
Wind DirectionNE (50 °)

Weather ElementTotal
Precipitation---
Heating Degree Days9.6 (Base 65)
Growing Degree Days5.4 (Base 50)
Averaged from 51 records on April 23, 2013
WEATHER CONDITIONS BREAKOUT
WIND DIRECTION BREAKOUT
WEATHER BY HOUR - APRIL 23, 2013
[ °C ]   °F
Local TimeTemperatureDewpointHumidityBarometerVisibilityWind DirectionWind SpeedGust SpeedPrecipitationEventsConditions
12:30 AM46.4 °F44.6 °F93 %30.12 inNorth (10°)1.2 mphClear
1:00 AM48.2 °F46.4 °F93 %30.12 inNNE (30°)2.3 mphClear
1:30 AM48.2 °F46.4 °F93 %30.12 inVariable2.3 mphClear
2:00 AM48.0 °F45.0 °F86 %30.14 in15.0 miCalmPartly Cloudy
2:00 AM50.0 °F46.4 °F87 %30.12 inVariable1.2 mphClear
2:30 AM48.2 °F46.4 °F93 %30.12 inVariable1.2 mphClear
3:00 AM48.2 °F46.4 °F93 %30.09 inNorth (360°)3.5 mphClear
3:30 AM46.4 °F44.6 °F93 %30.09 inEast (90°)2.3 mphClear
4:00 AM44.6 °F42.8 °F93 %30.09 inNE (50°)3.5 mphClear
4:30 AM44.6 °F42.8 °F93 %30.09 inNNE (30°)2.3 mphClear
5:00 AM44.6 °F42.8 °F93 %30.09 inNorth (360°)2.3 mphClear
5:30 AM44.6 °F42.8 °F93 %30.09 inCalmClear
6:00 AM42.8 °F41.0 °F93 %30.12 inNE (50°)2.3 mphClear
6:30 AM42.8 °F41.0 °F93 %30.12 inNE (50°)1.2 mphClear
7:00 AM42.8 °F41.0 °F93 %30.12 inVariable1.2 mphClear
7:30 AM42.8 °F41.0 °F93 %30.12 inCalmClear
8:00 AM45.0 °F42.0 °F87 %30.16 in19.0 miCalmScattered Clouds
8:00 AM44.6 °F44.6 °F100 %30.15 in6.2 miVariable1.2 mphPartly Cloudy
8:30 AM48.2 °F48.2 °F100 %30.15 in6.2 miCalmPartly Cloudy
9:00 AM53.6 °F50.0 °F88 %30.15 in6.2 miCalmPartly Cloudy
9:30 AM57.2 °F51.8 °F82 %30.15 in6.2 miCalmPartly Cloudy
10:00 AM62.6 °F53.6 °F72 %30.18 in6.2 miVariable1.2 mphPartly Cloudy
10:30 AM64.4 °F48.2 °F56 %30.18 in6.2 miVariable1.2 mphPartly Cloudy
11:00 AM62.6 °F44.6 °F52 %30.18 in6.2 miNE (50°)13.8 mphScattered Clouds
11:30 AM64.4 °F44.6 °F49 %30.18 in6.2 miNE (50°)17.3 mphScattered Clouds
12:00 PM66.2 °F44.6 °F46 %30.18 in6.2 miNE (50°)16.1 mphScattered Clouds
12:30 PM68.0 °F41.0 °F37 %30.18 in6.2 miENE (60°)17.3 mphScattered Clouds
1:00 PM68.0 °F42.8 °F40 %30.18 in6.2 miENE (60°)20.7 mphScattered Clouds
1:30 PM68.0 °F41.0 °F37 %30.18 in6.2 miENE (60°)21.9 mphScattered Clouds
2:00 PM68.0 °F38.0 °F23 %30.19 in19.0 miNNE (30°)15.0 mphScattered Clouds
2:00 PM68.0 °F42.8 °F40 %30.18 in6.2 miNE (40°)16.1 mph27.6 mphPartly Cloudy
2:30 PM68.0 °F39.2 °F35 %30.18 in6.2 miNE (50°)17.3 mphPartly Cloudy
3:00 PM68.0 °F39.2 °F35 %30.15 in6.2 miNNE (30°)18.4 mphPartly Cloudy
3:30 PM68.0 °F39.2 °F35 %30.15 in6.2 miNE (50°)17.3 mphPartly Cloudy
4:00 PM68.0 °F41.0 °F37 %30.15 in6.2 miNE (50°)18.4 mphPartly Cloudy
4:30 PM68.0 °F39.2 °F35 %30.15 in6.2 miNE (50°)16.1 mphPartly Cloudy
5:00 PM68.0 °F41.0 °F37 %30.15 in6.2 miNE (50°)18.4 mphPartly Cloudy
5:30 PM68.0 °F39.2 °F35 %30.15 in6.2 miNE (50°)21.9 mphPartly Cloudy
6:00 PM66.2 °F39.2 °F37 %30.15 in6.2 miNE (50°)19.6 mphPartly Cloudy
6:30 PM66.2 °F37.4 °F35 %30.15 inNE (40°)17.3 mphClear
7:00 PM64.4 °F42.8 °F45 %30.15 in6.2 miENE (60°)16.1 mphPartly Cloudy
7:30 PM62.6 °F44.6 °F52 %30.15 in6.2 miENE (60°)17.3 mphPartly Cloudy
8:00 PM62.0 °F46.0 °F45 %30.16 in19.0 miENE (60°)16.1 mphScattered Clouds
8:00 PM60.8 °F48.2 °F63 %30.15 in6.2 miENE (60°)13.8 mphPartly Cloudy
8:30 PM59.0 °F50.0 °F72 %30.15 in6.2 miENE (70°)13.8 mphPartly Cloudy
9:00 PM59.0 °F50.0 °F72 %30.15 in6.2 miNE (50°)11.5 mphPartly Cloudy
9:30 PM57.2 °F50.0 °F77 %30.18 in6.2 miNE (40°)9.2 mphPartly Cloudy
10:00 PM57.2 °F51.8 °F82 %30.18 in6.2 miNE (40°)9.2 mphPartly Cloudy
10:30 PM57.2 °F51.8 °F82 %30.18 in6.2 miNE (40°)10.4 mphPartly Cloudy
11:00 PM55.4 °F51.8 °F88 %30.18 in6.2 miENE (60°)10.4 mphPartly Cloudy
11:30 PM55.4 °F51.8 °F88 %30.21 in6.2 miENE (60°)9.2 mphPartly Cloudy
Hourly data recorded from LEPA, located miles away from Palma, Spain







STORIES FROM OUR PARTNERS